Regional Weather Roundup
Issued by NWS Charleston, WV

Home | Current Version | Previous Version | Text Only | Print | Product List | Glossary On
Versions: 1 2 3 4 5 6 7 8 9 10 11 12 13 14 15 16 17 18 19 20 21 22 23 24 25 26 27 28
000
ASUS41 KRLX 030010
RWRRLX
West Virginia Regional Weather Roundup
National Weather Service Charleston WV
800 PM EDT MON MAY 02 2016

Note: "fair" indicates few or no clouds below 12,000 feet with no
significant weather and/or obstructions to visibility.

WVZ003-030100-
Northern Panhandle of West Virginia

CITY           SKY/WX    TMP DP  RH WIND       PRES   REMARKS
WHEELING       CLOUDY    56  49  77 N7        29.93S
$$

WVZ009-030100-
Northwest West Virginia

CITY           SKY/WX    TMP DP  RH WIND       PRES   REMARKS
PARKERSBURG      N/A    N/A N/A N/A MISG        N/A
$$

WVZ006-030100-
Western West Virginia

CITY           SKY/WX    TMP DP  RH WIND       PRES   REMARKS
HUNTINGTON     MOCLDY    61  59  93 S3        29.91S
$$

WVZ015-030100-
West Central West Virginia

CITY           SKY/WX    TMP DP  RH WIND       PRES   REMARKS
CHARLESTON     LGT RAIN  63  60  90 S8        29.90F
$$

WVZ022-031-030100-
North Central West Virginia

CITY           SKY/WX    TMP DP  RH WIND       PRES   REMARKS
CLARKSBURG     LGT RAIN  62  59  90 S5        29.91S
MORGANTOWN     RAIN      60  55  83 CALM      29.94S
$$

WVZ025-035-042-045-030100-
Southern West Virginia

CITY           SKY/WX    TMP DP  RH WIND       PRES   REMARKS
BECKLEY        CLOUDY    58  56  93 CALM      29.98S
LOGAN          NOT AVBL
BLUEFIELD      CLOUDY    56  53  90 W7        30.01F
LEWISBURG      CLOUDY    59  57  93 CALM      29.98S
$$

WVZ047-030100-
Northern Mountains of West Virginia

CITY           SKY/WX    TMP DP  RH WIND       PRES   REMARKS
ELKINS         CLOUDY    59  52  77 SE6       29.97F
$$

WVZ052-030100-
Eastern Panhandle of West Virginia

CITY           SKY/WX    TMP DP  RH WIND       PRES   REMARKS
MARTINSBURG    LGT RAIN  75  64  68 N3        29.80S
PETERSBURG     DRIZZLE   72  51  48 W13       29.89R
$$




USA.gov is the U.S. government's official web portal to all federal, state and local government web resources and services.